TIME,DELAY(SENSOR),PRES,OXYGEN,RAWTEMP,T(OPTODE),TCPHASE,FLUOR,BETA(BETA700),BETA(BETA412),BETA(BETA440),CDOM,C(CSC),ED(ED411.90),ED(ED443.80),ED(ED489.40),ED(ED554.70),LU(LU412.20),LU(LU443.80),LU(LU489.40),LU(LU555.00),COMP,TILTX,TILTY,CHECK
1346622676,5802,901.1099853515625000,169.7606964111328000,410.6223144531250000,10.6541004180908200,38.9780693054199200,51,105,99,82,74,15411,2147453129,2147788909,2147573101,2147818806,2147307172,2147460507,2147742418,2148267593,2901,6,14,46207
1346626272,5801,11.8000001907348630,186.4691009521484400,493.2182006835937500,8.0922698974609380,39.2106895446777340,52,107,101,83,74,15399,2147440530,2147794642,2147580772,2147824932,2147306093,2147453549,2147757485,2148276406,3150,6,14,38164
1346629872,5805,12.6999998092651370,196.0509948730468800,505.0892028808594000,7.7207369804382320,38.8000602722168000,51,106,101,83,75,15391,2147435666,2147797037,2147583286,2147832758,2147304027,2147455597,2147755483,2148279817,3511,6,14,62562
1346633472,5802,13.3000001907348630,199.5740051269531200,507.7568054199219000,7.6371169090271000,38.6271514892578100,51,107,102,82,75,15390,2147436534,2147797540,2147583707,2147831003,2147305682,2147449069,2147759296,2148280109,101,6,14,14871
1346637072,5805,13.0000000000000000,199.7606964111328000,508.6658020019531000,7.6086111068725590,38.6317710876464840,51,105,102,81,74,15388,2147438409,2147797485,2147584128,2147829942,2147305069,2147449371,2147761133,2148277174,3444,6,14,56620
1346640672,5806,10.8999996185302730,202.0917968750000000,510.3678894042969000,7.5552210807800290,38.5191307067871100,52,108,102,83,76,15387,2147437266,2147795008,2147582838,2147830290,2147305874,2147451821,2147761728,2148275830,134,6,14,25544
1346644272,5805,10.1000003814697270,199.4044952392578000,508.2694091796875000,7.6210441589355470,38.6473503112793000,50,107,100,82,75,15372,2147439350,2147797211,2147582637,2147831442,2147301513,2147451419,2147755309,2148277860,289,6,14,65485
1346647872,5805,10.1000003814697270,199.0377044677734400,508.3406066894531000,7.6188120841979980,38.6713790893554700,51,106,102,82,74,15370,2147435602,2147796260,2147584996,2147831606,2147307574,2147448923,2147762486,2148277248,423,6,14,38507
1346651472,5805,10.0000000000000000,199.3278045654297000,508.3364868164062500,7.6189379692077640,38.6525001525878900,52,109,101,83,74,15370,2147437668,2147794084,2147583085,2147832100,2147307428,2147448173,2147761353,2148279030,561,6,14,63027
1346655072,5805,12.6000003814697270,193.0189971923828000,499.5885925292969000,7.8930082321166990,38.8960990905761700,51,104,102,83,74,15372,2147435648,2147798116,2147583177,2147830052,2147304704,2147455021,2147755163,2148275547,114,6,14,48397
1346658672,5807,12.1999998092651370,191.9143981933593800,500.2737121582031000,7.8715629577636720,38.9786109924316400,51,107,101,83,74,15368,2147435648,2147798820,2147584155,2147830500,2147303076,2147452598,2147752457,2148277348,173,6,14,41946
1346662272,5805,10.3000001907348630,192.2014007568359400,500.2026062011719000,7.8737888336181640,38.9592514038085940,51,109,105,82,74,15368,2147440219,2147793728,2147579282,2147829312,2147303277,2147452233,2147754678,2148278070,354,6,14,7283
1346665872,5801,1086.0000000000000000,192.1551055908203000,500.0852050781250000,7.8774647712707520,38.9603500366210940,51,107,101,82,75,15370,2147438592,2147794752,2147584356,2147828132,2147307382,2147454070,2147756150,2148278820,638,6,14,3680
1346669472,5806,11.8000001907348630,192.7185058593750000,500.5090026855469000,7.8641982078552250,38.9308013916015600,51,106,99,82,75,15363,2147441216,2147793389,2147581385,2147829376,2147305234,2147450998,2147753947,2148278409,3442,6,14,57320
1346673072,5803,11.8999996185302730,192.9804992675781200,500.5387878417969000,7.8632631301879880,38.9158515930175800,51,110,101,83,75,15367,2147438134,2147797193,2147585014,2147826130,2147305270,2147452864,2147758720,2148275876,3575,6,14,882
1346676672,5805,12.8000001907348630,192.6434020996093800,501.7822875976562500,7.8243308067321780,38.9582786560058600,51,105,100,82,75,15361,2147440658,2147797677,2147582080,2147831104,2147303762,2147450569,2147760118,2148279204,147,6,14,34654
1346680272,5806,12.6000003814697270,193.6721038818359400,500.9010009765625000,7.8519258499145510,38.8779602050781250,51,108,101,81,75,15363,2147439030,2147796635,2147581366,2147829504,2147305801,2147452224,2147755529,2148276982,178,6,14,46889
1346683872,5804,1052.0000000000000000,193.6909027099609400,500.4725036621094000,7.8653402328491210,38.8689117431640600,51,106,100,83,75,15361,2147440493,2147796169,2147581238,2147830811,2147308096,2147450843,2147757056,2148275620,516,6,14,63225
1346687472,5804,10.6999998092651370,193.7745971679687500,501.0741882324219000,7.8465027809143070,38.8741416931152340,51,107,100,83,74,15364,2147438765,2147796342,2147582308,2147828507,2147305572,2147449344,2147757641,2148278390,126,6,14,8536
1346691072,5804,1073.0000000000000000,192.3475952148437500,499.9956970214844000,7.8802661895751950,38.9458618164062500,51,107,101,82,75,15359,2147435437,2147798272,2147582070,2147827821,2147304448,2147450276,2147755584,2148278034,41,6,14,16485
1346694672,5804,1067.0000000000000000,190.5144958496093800,500.7152099609375000,7.8577408790588380,39.0772590637207000,51,106,101,82,75,15360,2147438710,2147800950,2147582729,2147831396,2147308013,2147448466,2147755483,2148277293,3433,6,14,30538
1346698272,5807,1089.0000000000000000,191.2590942382812500,500.5470886230469000,7.8630042076110840,39.0261802673339840,51,108,101,82,75,15357,2147438537,2147796882,2147581787,2147828726,2147306688,2147456155,2147756854,2148278208,48,6,14,38614
1346701872,5806,10.0000000000000000,191.0617065429687500,501.9426879882812500,7.8193068504333500,39.0627593994140600,52,107,99,83,76,15352,2147435894,2147795008,2147583021,2147831049,2147307648,2147458057,2147758491,2148276187,380,6,14,49919
1346705472,5803,1036.0000000000000000,193.0861968994140600,502.4757995605469000,7.8026099205017090,38.9423789978027340,51,106,102,83,74,15353,2147441344,2147796352,2147582445,2147830326,2147309129,2147453376,2147757842,2148275940,3374,6,14,30184
1346709072,5804,12.5000000000000000,193.5789031982422000,502.5379943847656000,7.8006639480590820,38.9121894836425800,51,108,101,83,75,15350,2147436973,2147796379,2147582592,2147830171,2147304749,2147447945,2147757833,2148276571,1172,6,14,45818
1346712672,5803,1031.0000000000000000,195.2026062011718800,502.8706970214844000,7.7902421951293945,38.8147315979003900,51,107,101,82,74,15344,2147438957,2147794560,2147582390,2147828288,2147304658,2147451090,2147759506,2148275136,1522,6,14,36978
1346716272,5804,1233.0000000000000000,195.2852935791015600,502.7604980468750000,7.7936940193176270,38.8071212768554700,51,108,101,83,74,15346,2147438701,2147796644,2147583744,2147832923,2147307803,2147452562,2147756050,2148275602,1458,6,14,44542
1346719872,5803,1053.0000000000000000,194.9235992431640600,502.6094055175781000,7.7984280586242680,38.8277816772460940,51,107,103,81,75,15346,2147437238,2147794550,2147581467,2147828626,2147304557,2147448640,2147758948,2148278235,1998,6,15,17236
1346723472,5804,12.6999998092651370,195.3825988769531200,503.9979858398437500,7.7549300193786620,38.8236198425293000,52,107,101,81,75,15342,2147439012,2147796928,2147584795,2147829494,2147305645,2147453942,2147758253,2148275968,2196,6,15,40777
1346727072,5804,12.8000001907348630,195.0166015625000000,503.1530151367187500,7.7814021110534670,38.8319892883300800,51,107,102,82,75,15344,2147439259,2147798436,2147585490,2147829641,2147305042,2147450505,2147759936,2148277650,2108,6,14,13334
1346730672,5803,1285.0000000000000000,193.1103057861328000,501.9013061523437500,7.8206028938293460,38.9304695129394500,52,111,101,82,76,15347,2147437257,2147798409,2147583552,2147829696,2147307474,2147452644,2147756644,2148280356,747,6,14,2872
1346734272,5804,13.8000001907348630,194.0932006835937500,501.9234924316406000,7.8199081420898440,38.8687591552734400,51,105,99,81,75,15347,2147435474,2147797988,2147586806,2147827867,2147305206,2147453604,2147758464,2148281270,412,6,14,24025
1346737872,5804,1303.0000000000000000,192.9346008300781200,502.4666137695312500,7.8028988838195800,38.9521293640136700,51,105,100,82,75,15343,2147438363,2147794523,2147585892,2147827328,2147303652,2147452608,2147756086,2148277458,494,6,14,26462
1346741472,5805,12.3000001907348630,192.5778961181640600,502.9981079101562500,7.7862510681152340,38.9836387634277340,51,107,100,82,75,15344,2147437476,2147797668,2147587062,2147830317,2147307821,2147448658,2147753910,2148278180,791,6,14,29583
1346745072,5804,1043.0000000000000000,194.4234008789062500,504.4383850097656000,7.7411317825317380,38.8911399841308600,51,107,100,82,75,15345,2147435940,2147793042,2147585152,2147830299,2147303515,2147450496,2147756882,2148276854,3291,6,14,33416
1346748672,5805,10.3999996185302730,195.4474945068359400,503.6130981445312500,7.7669868469238280,38.8120193481445300,51,106,102,82,75,15342,2147436233,2147791433,2147585920,2147828306,2147304795,2147451474,2147759680,2148274633,3193,6,14,59118
1346752272,5805,12.0000000000000000,195.2772064208984400,504.1170043945312500,7.7512001991271970,38.8316917419433600,51,108,101,83,74,15341,2147439853,2147796882,2147584393,2147831798,2147307300,2147448941,2147760594,2148275748,3247,6,14,38894
1346755872,5802,1287.0000000000000000,195.2026977539062500,503.7825012207031000,7.7616820335388180,38.8307800292968750,51,110,101,82,75,15337,2147436306,2147796059,2147583067,2147831414,2147302957,2147457664,2147757531,2148275136,3579,6,14,49091
1346759472,5804,1057.0000000000000000,195.8329925537109400,504.7384948730469000,7.7317280769348145,38.8077888488769500,51,106,101,82,75,15341,2147438665,2147795657,2147583387,2147829549,2147304795,2147458413,2147760868,2148273883,486,6,14,53409
1346763072,5806,10.6999998092651370,196.3934936523437500,505.3848876953125000,7.7114720344543460,38.7834510803222660,51,108,101,82,75,15332,2147442240,2147794294,2147586605,2147831981,2147306779,2147456877,2147754861,2148278208,294,6,14,44133
1346765455,5804,1247.0000000000000000,195.5433044433593800,505.5942993164062500,7.7049059867858890,38.8412284851074200,51,106,101,83,75,15333,2147438189,2147798500,2147585746,2147828434,2147307867,2147453001,2147759862,2148276690,559,6,14,35231
